TimeMDT,TemperatureF,Dew PointF,Humidity,Sea Level PressureIn,VisibilityMPH,Wind Direction,Wind SpeedMPH,Gust SpeedMPH,PrecipitationIn,Events,Conditions,WindDirDegrees,DateUTC
12:55 AM,48.0,46.0,93,30.14,10.0,Calm,Calm,-,0.00,Rain,Light Rain,0,2013-09-19 06:55:00
1:23 AM,48.2,46.4,93,30.11,10.0,Calm,Calm,-,0.00,,Overcast,0,2013-09-19 07:23:00
1:37 AM,48.2,46.4,93,30.11,10.0,Calm,Calm,-,0.00,,Overcast,0,2013-09-19 07:37:00
1:45 AM,48.2,46.4,93,30.11,10.0,Calm,Calm,-,0.00,,Overcast,0,2013-09-19 07:45:00
1:55 AM,48.0,46.9,96,30.14,10.0,South,3.5,-,0.00,,Overcast,190,2013-09-19 07:55:00
2:55 AM,48.0,46.0,93,30.15,10.0,Calm,Calm,-,N/A,,Overcast,0,2013-09-19 08:55:00
3:55 AM,48.0,46.0,93,30.15,10.0,Calm,Calm,-,N/A,,Overcast,0,2013-09-19 09:55:00
4:55 AM,48.0,46.0,93,30.17,10.0,Calm,Calm,-,N/A,,Overcast,0,2013-09-19 10:55:00
5:55 AM,46.9,46.0,97,30.18,10.0,Calm,Calm,-,N/A,,Overcast,0,2013-09-19 11:55:00
6:43 AM,46.4,46.4,100,30.16,10.0,Calm,Calm,-,N/A,,Overcast,0,2013-09-19 12:43:00
6:55 AM,46.0,45.0,96,30.19,10.0,SW,4.6,-,N/A,,Overcast,220,2013-09-19 12:55:00
7:17 AM,46.4,44.6,93,30.17,10.0,Calm,Calm,-,N/A,,Overcast,0,2013-09-19 13:17:00
7:55 AM,45.0,44.1,97,30.21,10.0,Calm,Calm,-,N/A,,Mostly Cloudy,0,2013-09-19 13:55:00
8:55 AM,48.0,44.1,86,30.22,10.0,Calm,Calm,-,N/A,,Scattered Clouds,0,2013-09-19 14:55:00
9:19 AM,48.2,44.6,87,30.19,10.0,Calm,Calm,-,N/A,,Overcast,0,2013-09-19 15:19:00
9:55 AM,52.0,45.0,77,30.21,10.0,Calm,Calm,-,N/A,,Mostly Cloudy,0,2013-09-19 15:55:00
10:28 AM,51.8,44.6,76,30.20,10.0,Calm,Calm,-,N/A,,Mostly Cloudy,0,2013-09-19 16:28:00
10:55 AM,52.0,46.0,80,30.22,10.0,Calm,Calm,-,N/A,,Mostly Cloudy,0,2013-09-19 16:55:00
11:48 AM,53.6,46.4,77,30.20,10.0,Calm,Calm,-,N/A,,Mostly Cloudy,0,2013-09-19 17:48:00
11:55 AM,54.0,46.0,75,30.21,10.0,Calm,Calm,-,N/A,,Mostly Cloudy,0,2013-09-19 17:55:00
12:55 PM,55.0,45.0,69,30.19,10.0,Calm,Calm,-,N/A,,Partly Cloudy,0,2013-09-19 18:55:00
1:55 PM,57.9,43.0,58,30.17,10.0,SE,6.9,-,N/A,,Partly Cloudy,140,2013-09-19 19:55:00
2:55 PM,61.0,42.1,50,30.14,10.0,SW,5.8,-,N/A,,Scattered Clouds,220,2013-09-19 20:55:00
3:55 PM,62.1,42.1,48,30.13,10.0,SSE,6.9,-,N/A,,Clear,150,2013-09-19 21:55:00
4:55 PM,63.0,41.0,45,30.11,10.0,South,4.6,-,N/A,,Clear,170,2013-09-19 22:55:00
5:55 PM,63.0,39.9,43,30.09,10.0,SSE,4.6,-,N/A,,Clear,160,2013-09-19 23:55:00
6:55 PM,59.0,41.0,51,30.08,10.0,South,4.6,-,N/A,,Clear,190,2013-09-20 00:55:00
7:55 PM,52.0,44.1,74,30.09,10.0,Calm,Calm,-,N/A,,Clear,0,2013-09-20 01:55:00
8:55 PM,46.9,44.1,90,30.09,10.0,North,3.5,-,N/A,,Clear,350,2013-09-20 02:55:00
9:55 PM,45.0,43.0,93,30.09,10.0,Calm,Calm,-,N/A,,Clear,0,2013-09-20 03:55:00
10:55 PM,44.1,41.0,89,30.09,10.0,West,3.5,-,N/A,,Clear,280,2013-09-20 04:55:00
11:55 PM,43.0,41.0,93,30.08,10.0,Calm,Calm,-,N/A,,Clear,0,2013-09-20 05:55:00